Ketchikan, AK

10:42 PM AKST on December 15, 2018 (GMT -0900)
Ketchikan International

Weather History for PAKT - February, 2018

Change the Weather History Date:

Wednesday, February 14, 2018

  Actual Average Record
Temperature  
Mean Temperature 36 °F -  
Max Temperature 41 °F 42 °F 58 °F (1963)
Min Temperature 32 °F 30 °F 3 °F (1956)
Degree Days  
Heating Degree Days 28    
Moisture  
Dew Point 32 °F    
Average Humidity 83    
Maximum Humidity 96    
Minimum Humidity 70    
Precipitation  
Precipitation 0.00 in - - ()
Sea Level Pressure  
Sea Level Pressure 30.25 in    
Wind  
Wind Speed 6 mph (NW)    
Max Wind Speed 15 mph    
Max Gust Speed 20 mph    
Visibility 10 miles    
Events Rain    
Averages and records for this station are not official NWS values.
T = Trace of Precipitation, MM = Missing Value Source: NWS Daily Summary

Daily Weather History Graph

Daily Weather History Graph

Search for Another Location

Airport or City:

Astronomy

Feb. 14, 2018 Rise Set
Actual Time 7:11 AM AKST 4:50 PM AKST
Civil Twilight 6:33 AM AKST 5:29 PM AKST
Nautical Twilight 5:50 AM AKST 6:12 PM AKST
Astronomical Twilight 5:08 AM AKST 6:54 PM AKST
Moon 6:51 AM AKST (2/14) 3:45 PM AKST (2/14)
Length of Visible Light 10h 55m
Length of Day
9h 38m
Waning Crescent, 1% of the Moon is Illuminated
Feb 14
Waning Crescent
Feb 15
New
Feb 22
First Quarter
Mar 1
Full
Mar 9
Last Quarter

Hourly Weather History & Observations

Time (AKST) Temp. Windchill Dew Point Humidity Pressure Visibility Wind Dir Wind Speed Gust Speed Precip Events Conditions
12:53 AM 37.9 °F - 36.0 °F 93% 30.06 in 10.0 mi Calm Calm - N/A   Overcast
1:05 AM 37.0 °F - 36.0 °F 96% 30.06 in 10.0 mi Calm Calm - N/A   Overcast
1:40 AM 37.9 °F 32.7 °F 36.0 °F 93% 30.08 in 10.0 mi NW 6.9 mph - N/A   Overcast
1:53 AM 37.9 °F 33.5 °F 36.0 °F 93% 30.08 in 8.0 mi NW 5.8 mph - N/A   Overcast
2:53 AM 37.0 °F 32.4 °F 34.0 °F 89% 30.11 in 10.0 mi WNW 5.8 mph - N/A   Overcast
3:53 AM 37.9 °F 29.6 °F 33.1 °F 83% 30.13 in 10.0 mi NW 13.8 mph - N/A   Overcast
4:53 AM 37.0 °F 31.0 °F 33.1 °F 86% 30.16 in 10.0 mi WNW 8.1 mph - N/A   Mostly Cloudy
5:53 AM 36.0 °F 30.3 °F 33.1 °F 89% 30.17 in 10.0 mi WNW 6.9 mph - N/A   Mostly Cloudy
6:06 AM 37.4 °F 32.1 °F 33.8 °F 87% 30.17 in 10.0 mi WNW 6.9 mph - N/A   Overcast
6:53 AM 35.6 °F 29.9 °F 33.8 °F 93% 30.19 in 10.0 mi NW 6.9 mph - N/A Rain Light Rain
7:53 AM 37.4 °F 32.1 °F 33.8 °F 87% 30.22 in 10.0 mi WNW 6.9 mph - N/A   Mostly Cloudy
8:53 AM 37.4 °F 30.8 °F 32.0 °F 81% 30.25 in 10.0 mi NW 9.2 mph - N/A   Mostly Cloudy
9:53 AM 39.2 °F 32.0 °F 33.8 °F 81% 30.27 in 10.0 mi NW 11.5 mph - N/A   Mostly Cloudy
10:53 AM 39.9 °F 31.8 °F 32.0 °F 73% 30.28 in 10.0 mi NNW 15.0 mph 19.6 mph N/A   Scattered Clouds
11:53 AM 39.9 °F 32.9 °F 32.0 °F 73% 30.29 in 10.0 mi NW 11.5 mph - N/A   Scattered Clouds
12:53 PM 39.2 °F 31.6 °F 32.0 °F 75% 30.30 in 10.0 mi NW 12.7 mph - N/A   Partly Cloudy
1:53 PM 41.0 °F 35.2 °F 32.0 °F 70% 30.30 in 10.0 mi NW 9.2 mph 17.3 mph N/A   Partly Cloudy
2:53 PM 39.2 °F 33.6 °F 30.2 °F 70% 30.31 in 10.0 mi WNW 8.1 mph - N/A   Clear
3:53 PM 37.4 °F 32.1 °F 30.2 °F 75% 30.33 in 10.0 mi WNW 6.9 mph - N/A   Clear
4:53 PM 37.4 °F 31.4 °F 28.4 °F 70% 30.33 in 10.0 mi NW 8.1 mph - N/A   Clear
5:53 PM 37.0 °F 30.4 °F 30.0 °F 76% 30.35 in 10.0 mi NW 9.2 mph - N/A   Clear
6:53 PM 35.6 °F 31.7 °F 30.2 °F 81% 30.35 in 10.0 mi NW 4.6 mph - N/A   Clear
7:53 PM 33.8 °F 29.6 °F 28.4 °F 81% 30.37 in 10.0 mi NW 4.6 mph - N/A   Clear
8:53 PM 33.8 °F 30.8 °F 30.2 °F 87% 30.37 in 10.0 mi West 3.5 mph - N/A   Clear
9:53 PM 32.0 °F - 28.9 °F 88% 30.37 in 10.0 mi Calm Calm - N/A   Clear
10:53 PM 33.1 °F 30.0 °F 28.9 °F 85% 30.36 in 10.0 mi SE 3.5 mph - N/A   Clear
11:53 PM 32.0 °F 27.5 °F 28.9 °F 88% 30.37 in 10.0 mi SSE 4.6 mph - N/A   Clear